Orbital Elements at Epoch 2459000.5 (2020-May-31.0) TDB
Reference: JPL 18 (heliocentric ecliptic J2000)
Element | Value | Uncertainty (1-sigma) | Units |
e | .2065228853868112 | 4.4741e-08 | |
a | 2.596542173376701 | 1.5119e-08 | au |
q | 2.060296791702403 | 1.1466e-07 | au |
i | 3.044484545123525 | 4.5394e-06 | deg |
node | 240.5627301820173 | 0.00013788 | deg |
peri | 42.29227011049377 | 0.00013878 | deg |
M | 269.092347951601 | 1.6894e-05 | deg |
tp | 2459386.413026461396 (2021-Jun-20.91302646) | 7.2529e-05 | TDB |
period | 1528.239772952638 4.18 | 1.3348e-05 3.654e-08 | d yr |
n | .2355651294851863 | 2.0574e-09 | deg/d |
Q | 3.132787555051 | 1.8241e-08 | au |
|
| | Orbit Determination Parameters
Additional Information
|